User: anonymous   Login
Location: Fort Wayne
(41.1310°N, 85.1290°W)
Time: 05:52:32
(UTC-04:00)
Language:

Cosmos 1980 - Orbit

View from above orbital plane
View from above orbital plane
View from above satellite
View from above satellite

Ground track
Ground track

The orbit data is extracted from the following two-line orbital elements,

1 19649U 88102A   17295.89844962 -.00000261 +00000-0 -11094-3 0  9991
2 19649 070.9989 157.7893 0003530 138.4885 221.6506 14.14670635492364
Epoch (UTC): 22 October 2017 21:33:46
Eccentricity: 0.0003530
inclination: 70.9989°
perigee height: 841 km
apogee height: 846 km
right ascension of ascending node: 157.7893°
argument of perigee: 138.4885°
revolutions per day: 14.14670635
mean anomaly at epoch: 221.6506°
orbit number at epoch: 49236

The dashed part of the orbit path shows where the satellite is in the earth's shadow,  

DLR